Location: �terpigny
(49.8910°N, 2.9249°E)
Time: 12:20:51
(UTC+00:00)

Tiangong - Pass Details

Date: 24 October 2021
Orbit: 380 x 384 km, 41.5° (Epoch: 06 December)

Event Time Altitude Azimuth Distance (km) Brightness Sun altitude
Rises 18:22:47 0° 251° (WSW) 2,273 6.3 -17.3°
Reaches altitude 10° 18:25:20 10° 230° (SW) 1,415 4.6 -17.7°
Maximum altitude 18:27:31 17° 187° (S) 1,065 3.3 -18.0°
Enters shadow 18:28:06 16° 173° (S) 1,092 3.2 -18.1°
